Tracking 27111 objects as of 28-Mar-2023
HD Live streaming from Space Station
objects crossing your sky now

STARLINK-4659

Track STARLINK-4659 now!
10-day predictions
STARLINK-4659 is classified as:


NORAD ID: 54841
Int'l Code: 2022-177X
Perigee: 565.0 km
Apogee: 567.3 km
Inclination: 43.0 °
Period: 95.8 minutes
Semi major axis: 6937 km
RCS: Unknown
Launch date: December 28, 2022
Source: United States (US)
Launch site: AIR FORCE EASTERN TEST RANGE (AFETR)
Your satellite tracking list
Your tracking list is empty




NASA's NSSDC Master Catalog

Two Line Element Set (TLE):
1 54841U 22177X   23087.11791901  .00016021  00000-0  11977-2 0  9997
2 54841  42.9977 228.2895 0001637 297.8798  62.1878 15.02556421 13888
Source of the keplerian elements: AFSPC